Skip Page Navigation
NASA JPL Caltech
NASA Logo - Jet Propulsion Laboratory + View the NASA Portal
+ Center for Near-Earth Object Studies
JPL Home Earth Solar System Stars & Galaxies Technology
JPL Solar System Dynamics
BODIES ORBITS EPHEMERIDES TOOLS PHYSICAL DATA DISCOVERY FAQ SITE MAP
JPL Small-Body Database Browser
Search: [ help ]  
175533 (2006 SE124)
Classification: Main-belt Asteroid          SPK-ID: 2175533
Ephemeris | Orbit Diagram | Orbital Elements | Mission Design | Physical Parameters | Discovery Circumstances ]

[ hide orbit diagram ]

For accurate long-term ephemerides, please instead use our Horizons system.This orbit viewer was implemented using two-body methods, and hence should not be used for determining accurate long-term trajectories (over several years or decades) or planetary encounter circumstances.


Orbital Elements at Epoch 2459200.5 (2020-Dec-17.0) TDB
Reference: JPL 17 (heliocentric ecliptic J2000)
 Element Value Uncertainty (1-sigma)   Units 
e .05836239787588449 3.7912e-08  
a 2.713433415727501 1.799e-08 au
q 2.555070935109092 1.0233e-07 au
i 7.420915949476355 5.2635e-06 deg
node 78.16385619667207 3.1405e-05 deg
peri 277.9586722842071 5.7209e-05 deg
M 72.2633833378819 4.6283e-05 deg
tp 2458872.787527389695
(2020-Jan-24.28752739)
0.00020974 TDB
period 1632.590181781098
4.47
1.6236e-05
4.445e-08
d
yr
n .2205084925889072 2.1929e-09 deg/d
Q 2.871795896345909 1.904e-08 au
  Orbit Determination Parameters
   # obs. used (total)      373  
   data-arc span      7578 days (20.75 yr)  
   first obs. used      2000-05-04  
   last obs. used      2021-02-01  
   planetary ephem.      DE441  
   SB-pert. ephem.      SB441-N16  
   condition code      0  
   norm. resid. RMS      .50718  
   source      ORB  
   producer      Otto Matic  
   solution date      2021-Apr-13 21:05:47  

Additional Information
 Earth MOID = 1.56228 au 
 Jupiter MOID = 2.39039 au 
 T_jup = 3.347 
[ hide covariance matrix ]
Orbital Elements at Epoch 2457633.5 (2016-Sep-02.0) TDB
Reference: JPL 17 (heliocentric ecliptic J2000)
 Element Value Uncertainty (1-sigma)   Units 
e .06033614253638463 3.8084e-08  
q 2.548931600919474 1.03e-07 au
tp 2457234.900945029300
(2015-Jul-31.40094503)
0.00020124 TDB
node 78.1985797950538 3.1447e-05 deg
peri 276.7948583148387 5.5729e-05 deg
i 7.417859153761549 5.261e-06 deg
  Orbit Determination Parameters
   # obs. used (total)      373  
   data-arc span      7578 days (20.75 yr)  
   first obs. used      2000-05-04  
   last obs. used      2021-02-01  
   planetary ephem.      DE441  
   SB-pert. ephem.      SB441-N16  
   condition code      0  
   norm. resid. RMS      .50718  
   source      ORB  
   producer      Otto Matic  
   solution date      2021-Apr-13 21:05:47  

Additional Information
 Jupiter MOID = 2.39039 au 
 T_jup = 3.347 
Orbit Covariance (6×6)
  e q tp node peri i
e 1.45035677513877E-15 -3.869938711789125E-15 9.69484987511224E-13 -1.23750174586711E-15 1.992988277458659E-13 -2.798881257201327E-15
q -3.869938711789125E-15 1.060904086365061E-14 -2.732966683874728E-12 3.783214742440251E-15 -5.51600407642353E-13 7.985663501708443E-15
tp 9.69484987511224E-13 -2.732966683874728E-12 4.049854654384008E-8 -3.266970473266562E-11 9.270679502680794E-9 -6.496455141510606E-13
node -1.23750174586711E-15 3.783214742440251E-15 -3.266970473266562E-11 9.888974217820802E-10 -9.878241167087879E-10 -2.348639806642685E-11
peri 1.992988277458659E-13 -5.51600407642353E-13 9.270679502680794E-9 -9.878241167087879E-10 3.105676587613322E-9 2.317061330468766E-11
i -2.798881257201327E-15 7.985663501708443E-15 -6.496455141510606E-13 -2.348639806642685E-11 2.317061330468766E-11 2.76777261969828E-11

Ephemeris | Orbit Diagram | Orbital Elements | Mission Design | Physical Parameters | Discovery Circumstances ]

Physical Parameter Table
Parameter Symbol Value Units Sigma Reference Notes
absolute magnitude H 16.12   n/a MPCxxxxx  

175533 (2006 SE124)          Discovered 2006-Sep-19 by CSS at Catalina
Reference: 20080122/Numbers.arcLast Updated: 2008-01-28

Alternate Designations
 2006 SE124 = 2005 MJ7 
Ephemeris | Orbit Diagram | Orbital Elements | Mission Design | Physical Parameters | Discovery Circumstances ]
ABOUT SSD CREDITS/AWARDS PRIVACY/COPYRIGHT GLOSSARY LINKS
FirstGov 2021-Jun-20 22:10 UT
(server date/time)  
NASA Home Page
Site Manager:   Ryan S. Park
Webmaster  Alan B. Chamberlin